Wind_Speed
18 19 19 18 18 16 14 12 11 9 8 8 6 6 6 5 5 6 5 5 6 5 5 5 6 6 6 6 6 7 7 8 9 10 10 10 11 12 14 15 16 17 18 18
18 18 19 19 18 16 13 12 9 8 8 7 5 5 5 6 6 4 4 4 4 4 4 4 5 5 6 6 6 7 7 8 9 9 10 10 11 12 14 15 16 17 18 18
17 16 17 17 16 15 14 13 10 8 6 6 5 4 5 5 4 3 3 4 4 4 4 4 5 5 6 6 6 6 7 8 9 10 10 10 11 13 14 15 16 17 18 18
16 16 16 16 15 15 13 10 8 7 7 6 4 3 4 3 3 3 3 3 4 4 4 4 5 5 5 6 6 6 7 8 9 9 10 11 12 13 14 15 16 17 18 18
14 15 15 14 14 14 12 10 9 8 8 7 6 4 3 3 3 3 3 3 3 3 4 4 5 5 5 6 6 6 7 9 10 10 11 12 12 13 14 15 16 17 18 18
13 13 13 13 12 11 11 11 10 10 10 9 5 4 3 4 4 4 3 3 3 3 4 4 4 5 5 5 6 6 7 9 10 11 11 12 13 14 14 15 16 17 18 18
11 12 12 12 13 13 13 12 11 11 9 7 4 6 6 6 6 5 4 4 3 3 3 4 4 4 5 5 6 6 8 9 10 11 12 12 13 14 15 16 16 17 18 18
10 10 11 12 13 13 13 12 11 10 8 7 7 8 7 6 6 5 5 4 4 4 4 4 5 5 5 6 6 7 8 9 11 12 12 13 14 15 16 16 17 17 18 19
8 8 9 11 12 14 13 9 9 9 7 6 7 7 7 6 6 5 5 5 5 5 5 5 5 5 6 7 7 8 9 10 12 13 13 14 15 16 17 17 18 18 18 19
9 7 9 10 12 11 11 12 8 6 6 6 7 7 6 6 6 6 5 5 5 5 6 5 5 6 7 8 8 9 10 11 12 13 14 15 16 17 18 19 19 19 19 20
10 8 8 10 11 11 10 11 8 7 6 5 7 7 7 6 6 6 6 6 6 6 6 6 7 7 8 9 9 10 11 12 13 14 15 16 17 18 19 20 20 20 21 21
10 9 6 6 8 9 10 10 10 9 8 7 8 8 7 7 7 7 8 7 7 7 7 8 8 9 10 10 11 12 12 14 15 16 17 18 18 20 21 21 22 22 23 23
11 9 5 3 5 7 8 9 9 7 7 7 8 8 8 8 8 8 8 8 8 9 9 10 10 11 11 11 12 13 14 15 16 18 19 20 20 21 22 23 24 24 25 25
10 9 7 6 6 6 7 8 9 8 7 7 9 8 8 8 9 8 8 9 9 10 11 11 12 12 12 12 13 15 16 17 18 19 21 22 23 24 25 25 26 26 27 27
11 9 8 8 8 8 7 8 8 8 8 8 9 8 8 9 9 9 10 10 10 11 11 12 12 13 14 14 15 17 18 19 20 22 23 24 25 26 27 28 28 29 29 29
10 9 9 9 9 9 8 8 8 9 9 9 10 9 9 9 9 10 10 11 11 12 12 12 13 15 16 16 17 19 20 21 23 24 25 26 27 28 29 30 31 31 31 31
11 10 9 8 9 9 8 8 9 9 10 10 10 10 9 10 10 11 11 12 12 13 13 14 15 16 17 18 19 20 22 23 24 25 27 27 28 30 31 32 33 33 33 34
11 11 11 10 10 10 8 9 10 10 10 11 11 11 11 12 13 13 13 14 14 14 14 15 16 18 19 20 21 22 24 26 27 28 29 31 32 33 34 35 35 35 36 36
13 13 13 12 12 11 10 10 11 12 12 12 13 13 13 14 14 15 15 16 16 16 17 18 19 20 21 23 24 25 26 28 29 31 32 34 35 36 36 37 38 38 38 38
14 15 15 14 14 15 12 12 13 14 14 14 15 16 16 17 17 17 18 18 19 19 20 21 22 23 24 25 27 28 29 31 32 33 35 36 37 38 38 39 40 41 41 41
17 17 17 17 17 18 15 14 16 16 15 16 17 18 19 19 20 20 20 21 22 23 23 24 25 26 27 28 30 31 33 34 35 37 38 39 40 41 41 42 42 43 43 42
20 20 20 20 21 20 18 18 19 19 19 19 20 21 21 22 22 23 23 24 25 26 27 28 28 29 30 32 33 34 35 36 38 39 41 42 42 43 43 44 44 44 44 43
23 23 23 23 23 22 21 21 21 22 22 22 23 23 24 25 25 26 26 27 28 28 29 30 31 32 34 35 36 37 38 39 40 42 43 43 44 44 44 45 45 45 45 45
26 26 26 27 26 25 25 25 25 25 25 25 26 27 27 28 28 29 29 30 30 31 32 33 34 35 37 38 39 40 41 42 43 44 44 45 45 45 45 46 46 46 46 46
29 28 29 30 29 29 28 28 28 28 28 29 29 30 30 31 31 32 32 33 33 34 35 36 37 38 39 40 41 42 44 45 45 46 45 46 46 47 47 47 47 47 47 47
32 32 32 33 33 33 32 31 31 32 32 32 32 32 33 34 34 35 35 35 36 37 38 39 40 41 41 42 43 44 45 47 47 47 47 48 48 48 49 49 48 48 49 49
Wind_Direction
169 173 174 178 181 180 189 194 197 203 220 227 241 241 254 260 270 274 279 293 300 297 294 298 301 304 309 316 321 320 322 325 328 331 334 337 340 344 345 347 349 349 347 347
163 168 172 175 180 180 185 195 196 201 212 230 243 249 257 264 261 268 292 298 304 310 311 311 313 315 315 321 327 324 329 332 333 331 331 334 338 342 345 347 348 348 348 348
162 171 174 177 179 182 187 191 190 192 200 219 236 240 249 257 255 254 277 292 297 299 307 309 316 320 318 323 326 325 328 330 330 330 331 334 336 339 342 344 345 346 346 346
159 166 171 177 179 182 180 184 182 186 198 190 178 178 229 254 264 275 273 289 295 297 301 309 317 318 314 317 321 325 328 330 333 332 331 332 334 336 338 340 342 343 344 344
158 166 168 174 176 176 173 175 173 170 164 153 168 186 237 284 284 284 289 296 296 303 313 314 316 315 315 316 318 325 331 332 337 337 335 333 332 333 335 336 338 340 342 343
150 161 167 169 172 170 165 163 162 155 151 156 178 198 238 272 290 297 298 301 293 303 318 322 320 319 320 321 321 329 333 336 338 336 335 333 332 333 335 336 338 338 339 340
144 150 157 155 153 156 157 153 149 152 158 157 185 233 254 274 288 295 298 304 311 311 318 324 324 323 324 325 326 327 331 335 336 334 332 331 331 331 332 333 334 335 336 337
141 147 154 156 155 153 155 158 155 152 162 184 226 252 265 277 281 286 293 297 305 311 315 322 323 325 325 325 326 326 328 329 330 333 333 329 328 327 328 329 329 331 332 334
140 147 152 157 160 158 158 148 135 140 154 186 241 265 269 272 276 281 283 287 293 301 307 309 316 320 318 319 322 324 325 324 324 330 331 329 327 326 326 326 327 327 329 331
139 151 155 155 158 164 160 148 141 143 166 202 254 273 275 270 273 277 285 289 290 292 299 305 308 319 317 316 318 318 319 320 322 324 325 325 325 325 325 326 326 326 326 327
136 143 157 161 162 163 164 162 160 166 193 218 248 260 271 275 275 278 283 287 292 295 301 305 306 312 313 312 313 315 317 318 320 322 324 324 324 324 323 323 323 323 324 325
145 139 142 163 173 179 176 178 180 181 198 224 250 267 276 276 277 281 283 286 291 295 298 300 300 303 304 304 306 309 312 314 316 317 320 321 320 321 321 320 320 319 319 320
155 143 139 171 190 199 198 197 200 200 208 226 251 269 276 280 281 283 286 289 292 295 296 296 296 298 300 301 304 306 308 311 312 313 315 317 316 317 318 318 317 317 316 316
172 169 179 202 221 221 210 206 209 212 219 240 258 271 279 283 285 289 290 290 292 296 297 293 293 293 300 302 305 307 309 310 311 312 313 313 314 314 314 315 315 314 314 313
191 195 206 221 233 236 227 221 220 225 237 250 265 274 280 287 289 291 292 293 294 295 298 295 294 294 299 301 304 306 307 308 309 310 310 311 311 311 311 311 311 312 312 311
209 212 221 228 236 240 240 240 239 239 247 260 271 281 287 289 291 291 294 298 298 297 299 298 296 297 298 302 302 303 305 307 307 308 308 308 309 309 308 308 308 308 308 308
222 224 229 238 243 243 244 244 247 250 255 263 273 281 285 291 293 292 296 298 299 300 299 299 298 298 298 301 302 302 304 306 307 307 308 309 309 309 308 307 306 305 305 305
233 234 237 241 248 251 248 249 254 259 263 268 275 281 287 291 294 296 298 298 299 300 300 301 300 299 299 301 304 303 304 305 306 306 307 307 308 308 308 308 307 305 304 302
241 243 244 244 249 256 254 256 259 263 266 271 276 282 286 289 291 294 296 297 298 298 300 301 301 301 301 303 305 305 304 305 305 306 307 308 307 307 307 307 307 306 304 301
246 247 249 249 252 256 259 260 265 269 270 271 276 281 285 289 291 294 295 296 297 298 300 300 301 301 302 302 304 304 305 305 305 306 307 308 308 307 307 307 306 305 304 302
247 249 251 253 256 259 263 266 268 271 274 275 276 280 284 288 291 294 294 295 297 298 299 300 300 301 301 302 303 303 304 305 305 305 307 307 307 307 306 306 305 304 303 302
251 251 253 256 259 263 267 268 270 273 275 277 279 282 285 288 291 293 294 295 297 298 299 300 300 300 301 301 303 303 304 305 305 306 306 307 307 306 306 306 305 304 303 302
254 255 258 260 263 267 268 269 271 273 275 278 281 284 286 288 291 292 294 296 296 297 297 298 299 300 300 302 303 303 304 305 307 307 306 307 306 306 306 305 305 305 304 303
255 257 260 263 264 266 268 268 270 273 276 279 282 284 286 288 290 292 294 295 296 296 297 299 300 300 301 301 303 303 304 306 306 306 306 306 306 306 306 306 306 305 304 303
257 258 260 262 264 265 266 268 271 273 276 279 281 284 286 288 290 292 293 295 296 297 298 299 300 301 301 301 302 303 303 305 306 306 305 306 306 306 306 306 306 305 304 303
258 259 260 262 264 265 266 268 271 273 276 278 280 282 284 286 289 291 292 294 295 297 298 300 301 301 301 301 302 303 303 304 305 305 305 305 306 305 306 306 306 305 304 302
Height
5812 5818 5822 5826 5830 5834 5837 5839 5842 5846 5848 5850 5851 5852 5853 5854 5854 5855 5856 5857 5856 5857 5857 5858 5858 5857 5857 5857 5857 5856 5856 5856 5855 5855 5854 5853 5852 5851 5849 5847 5845 5842 5840 5837
5815 5819 5822 5826 5830 5834 5837 5839 5842 5846 5847 5849 5850 5851 5852 5853 5854 5854 5855 5856 5856 5856 5856 5856 5856 5856 5856 5856 5856 5855 5854 5854 5854 5853 5853 5852 5851 5850 5848 5846 5844 5841 5839 5836
5816 5820 5823 5827 5830 5834 5837 5840 5843 5846 5847 5849 5850 5851 5851 5852 5853 5854 5854 5855 5855 5855 5855 5855 5855 5855 5855 5855 5854 5854 5854 5853 5853 5852 5851 5850 5850 5848 5847 5845 5843 5840 5838 5835
5817 5821 5824 5828 5831 5834 5837 5840 5843 5845 5847 5848 5850 5850 5851 5851 5853 5853 5853 5854 5854 5854 5854 5854 5854 5854 5853 5853 5853 5853 5852 5852 5851 5850 5850 5849 5848 5847 5845 5844 5842 5839 5837 5834
5819 5822 5825 5828 5831 5834 5838 5841 5844 5846 5847 5849 5850 5850 5851 5851 5852 5853 5852 5852 5853 5853 5853 5853 5853 5853 5853 5852 5852 5852 5851 5851 5850 5849 5848 5847 5846 5845 5844 5842 5840 5838 5835 5833
5822 5824 5827 5829 5832 5836 5839 5842 5844 5845 5847 5849 5850 5850 5851 5851 5851 5852 5851 5851 5851 5852 5851 5851 5851 5852 5851 5851 5851 5850 5850 5849 5849 5848 5847 5846 5845 5843 5842 5840 5838 5836 5834 5831
5824 5827 5829 5831 5834 5837 5839 5842 5844 5845 5847 5849 5850 5850 5851 5851 5851 5851 5850 5850 5850 5850 5850 5850 5850 5850 5850 5849 5849 5849 5848 5848 5847 5846 5845 5844 5843 5841 5840 5838 5836 5834 5832 5830
5827 5830 5831 5832 5835 5837 5839 5841 5844 5846 5847 5849 5850 5849 5851 5850 5850 5850 5850 5849 5849 5849 5849 5849 5849 5849 5849 5848 5848 5847 5847 5846 5845 5844 5843 5842 5841 5839 5838 5836 5834 5832 5830 5828
5829 5832 5833 5834 5836 5837 5839 5840 5843 5845 5847 5849 5849 5849 5849 5849 5849 5849 5849 5848 5848 5848 5848 5847 5847 5847 5847 5847 5846 5846 5845 5844 5843 5842 5841 5840 5838 5837 5835 5833 5832 5830 5827 5825
5831 5833 5835 5836 5838 5839 5840 5842 5844 5846 5847 5848 5848 5847 5848 5848 5848 5848 5847 5847 5846 5846 5846 5846 5846 5846 5845 5845 5844 5844 5843 5842 5841 5840 5839 5837 5836 5834 5832 5831 5829 5827 5824 5822
5832 5835 5836 5838 5839 5840 5842 5844 5844 5846 5847 5848 5847 5848 5847 5847 5846 5846 5846 5845 5845 5845 5845 5844 5844 5844 5843 5843 5842 5842 5841 5840 5839 5837 5836 5835 5833 5831 5830 5828 5826 5824 5821 5819
5833 5835 5837 5838 5840 5841 5841 5842 5843 5845 5846 5846 5846 5849 5845 5845 5845 5844 5843 5843 5843 5843 5842 5842 5842 5841 5841 5840 5840 5839 5838 5837 5836 5835 5833 5832 5830 5828 5826 5824 5822 5820 5818 5815
5834 5836 5837 5839 5842 5842 5841 5842 5843 5844 5844 5845 5845 5847 5843 5843 5842 5842 5841 5841 5841 5840 5840 5839 5839 5839 5838 5837 5837 5836 5835 5834 5833 5831 5830 5828 5826 5824 5822 5820 5817 5815 5813 5810
5835 5836 5838 5839 5839 5839 5840 5841 5842 5843 5843 5843 5843 5842 5841 5841 5840 5840 5839 5839 5838 5837 5837 5836 5836 5835 5834 5834 5833 5832 5831 5830 5829 5827 5825 5823 5822 5819 5817 5814 5812 5809 5807 5805
5834 5836 5836 5837 5838 5839 5839 5840 5841 5841 5841 5841 5840 5840 5840 5839 5838 5837 5837 5836 5835 5834 5833 5833 5832 5831 5831 5830 5829 5828 5827 5825 5824 5822 5820 5818 5816 5814 5811 5808 5806 5803 5800 5798
5834 5835 5835 5836 5837 5837 5838 5839 5839 5839 5839 5839 5839 5839 5838 5836 5835 5835 5834 5833 5832 5831 5830 5829 5828 5827 5827 5826 5825 5823 5822 5821 5819 5817 5815 5812 5810 5807 5805 5802 5799 5796 5793 5790
5832 5833 5834 5835 5835 5836 5837 5837 5837 5837 5837 5837 5837 5837 5835 5834 5833 5832 5831 5830 5829 5828 5826 5825 5824 5823 5822 5821 5820 5818 5817 5815 5813 5810 5808 5805 5803 5800 5797 5794 5791 5788 5785 5782
5830 5831 5832 5832 5834 5834 5836 5835 5835 5835 5835 5835 5834 5834 5833 5832 5830 5829 5828 5826 5825 5824 5823 5821 5820 5819 5818 5816 5814 5812 5810 5808 5806 5803 5800 5798 5795 5791 5788 5785 5781 5778 5775 5772
5828 5828 5829 5830 5830 5831 5832 5832 5832 5832 5833 5832 5831 5831 5830 5828 5827 5826 5824 5823 5821 5820 5818 5817 5815 5814 5812 5810 5808 5806 5804 5801 5798 5796 5793 5789 5786 5782 5778 5774 5771 5767 5763 5760
5824 5825 5826 5827 5827 5828 5830 5829 5829 5830 5829 5829 5828 5827 5826 5825 5824 5823 5821 5819 5817 5815 5814 5812 5810 5808 5806 5804 5801 5799 5796 5793 5790 5787 5783 5780 5776 5772 5767 5763 5759 5755 5751 5747
5821 5821 5822 5823 5823 5823 5825 5825 5825 5826 5826 5825 5824 5823 5822 5820 5819 5818 5816 5814 5812 5810 5808 5806 5804 5802 5799 5797 5794 5791 5788 5785 5781 5778 5774 5769 5765 5760 5756 5751 5747 5742 5738 5734
5816 5817 5818 5818 5819 5821 5821 5820 5821 5821 5820 5819 5819 5818 5816 5815 5814 5812 5810 5808 5806 5804 5801 5799 5797 5794 5791 5788 5785 5782 5779 5775 5771 5767 5763 5758 5753 5748 5743 5738 5733 5729 5724 5720
5811 5812 5813 5814 5816 5816 5815 5815 5815 5815 5814 5814 5813 5812 5811 5809 5807 5805 5803 5801 5799 5797 5794 5791 5789 5786 5783 5779 5776 5773 5769 5765 5760 5756 5751 5746 5740 5735 5730 5725 5720 5715 5710 5706
5805 5806 5806 5807 5808 5808 5808 5809 5808 5808 5807 5807 5806 5805 5804 5802 5800 5798 5796 5794 5791 5789 5786 5783 5780 5777 5773 5770 5766 5762 5757 5753 5748 5743 5738 5733 5728 5722 5717 5712 5707 5702 5697 5692
5798 5799 5799 5799 5800 5800 5801 5801 5801 5801 5800 5799 5798 5797 5796 5794 5792 5790 5788 5785 5783 5780 5777 5774 5770 5767 5763 5759 5755 5750 5746 5741 5736 5731 5725 5720 5714 5709 5704 5699 5694 5689 5684 5678
5790 5790 5791 5791 5791 5792 5793 5793 5793 5792 5792 5791 5790 5789 5787 5785 5783 5781 5779 5776 5774 5770 5767 5764 5760 5756 5752 5748 5743 5738 5733 5728 5723 5718 5712 5707 5701 5696 5691 5686 5681 5676 5670 5664